This is the latest recevied weather packets stored in our database for station/object KD8BMB. If no packets are shown the sender has not sent any weather packets the latest 10 day(s).
| Time | Temp. | Humidity | Pressure | Rain* | Wind** | Luminosity | Snow |
|---|---|---|---|---|---|---|---|
| 1777825642 | 14.44° C | 48% | 1010.9 hPa | 0 mm | - | 446 W/m² | - |
| 1777825340 | 14.44° C | 50% | 1011 hPa | 0 mm | - | 439 W/m² | - |
| 1777825037 | 14.44° C | 50% | 1011.1 hPa | 0 mm | - | 537 W/m² | - |
| 1777824732 | 13.89° C | 50% | 1011.4 hPa | 0 mm | - | 519 W/m² | - |
| 1777824430 | 13.89° C | 50% | 1011.2 hPa | 0 mm | - | 367 W/m² | - |
| 1777824125 | 13.89° C | 51% | 1011.4 hPa | 0 mm | - | 409 W/m² | - |
| 1777823822 | 13.33° C | 50% | 1011.6 hPa | 0 mm | - | 565 W/m² | - |
| 1777823520 | 13.33° C | 51% | 1011.6 hPa | 0 mm | - | 451 W/m² | - |
| 1777823216 | 12.78° C | 50% | 1011.5 hPa | 0 mm | - | 288 W/m² | - |
| 1777822914 | 13.33° C | 50% | 1011.7 hPa | 0 mm | - | 337 W/m² | - |
| 1777822612 | 13.33° C | 49% | 1011.7 hPa | 0 mm | - | 423 W/m² | - |
| 1777822309 | 13.33° C | 50% | 1011.7 hPa | 0 mm | - | 535 W/m² | - |
| 1777822007 | 13.33° C | 51% | 1011.8 hPa | 0 mm | - | 410 W/m² | - |
| 1777821704 | 12.78° C | 50% | 1011.8 hPa | 0 mm | - | 433 W/m² | - |
| 1777821402 | 12.78° C | 50% | 1011.8 hPa | 0 mm | - | 446 W/m² | - |
| 1777821098 | 12.22° C | 53% | 1012 hPa | 0 mm | - | 293 W/m² | - |
| 1777820796 | 11.67° C | 53% | 1011.9 hPa | 0 mm | - | 200 W/m² | - |
| 1777820491 | 11.67° C | 52% | 1011.8 hPa | 0 mm | - | 151 W/m² | - |
| 1777820189 | 11.67° C | 52% | 1011.9 hPa | 0 mm | - | 140 W/m² | - |
| 1777819886 | 12.22° C | 53% | 1011.9 hPa | 0 mm | - | 164 W/m² | - |
| 1777819583 | 12.22° C | 53% | 1011.8 hPa | 0 mm | - | 135 W/m² | - |
| 1777819281 | 12.78° C | 52% | 1011.8 hPa | 0 mm | - | 154 W/m² | - |
| 1777818977 | 13.33° C | 51% | 1011.8 hPa | 0 mm | - | 252 W/m² | - |
| 1777818674 | 13.33° C | 52% | 1011.7 hPa | 0 mm | - | 357 W/m² | - |
| 1777818371 | 12.78° C | 51% | 1011.7 hPa | 0 mm | - | 542 W/m² | - |
* Rain latest hour (hover to see other rain measurements)
** Current wind speed in m/s (hover to see current wind gust speed)